START_TIME,STEP,MOV.,AL01,t_acc.,AL02,t_acc.,E37,t_acc.,H21,t_acc.
1979-03-02 09:00:23.770 ,6,1,10.,24.0,0.,24.0,0.,24.0,0.,24.0
1979-03-02 09:00:47.770 ,5,1,2.,24.0,0.,24.0,0.,24.0,0.,24.0
1979-03-02 09:01:11.770 ,4,1,1.,24.0,3.,24.0,0.,24.0,0.,24.0
1979-03-02 09:01:35.770 ,3,1,5.,24.0,1.,24.0,0.,24.0,0.,24.0
1979-03-02 09:01:59.770 ,2,1,3.,24.0,0.,24.0,1.,24.0,0.,24.0
1979-03-02 09:02:23.770 ,1,1,3.,24.0,1.,24.0,0.,24.0,0.,24.0
1979-03-02 09:02:47.770 ,0,1,0.,24.0,0.,24.0,0.,24.0,0.,24.0
1979-03-02 09:03:11.770 ,0,1,3.,24.0,0.,24.0,0.,24.0,0.,24.0
1979-03-02 09:03:35.770 ,1,1,3.,24.0,0.,24.0,0.,24.0,0.,24.0
1979-03-02 09:03:59.770 ,2,1,1.,24.0,0.,24.0,1.,24.0,0.,24.0
1979-03-02 09:04:23.770 ,3,1,0.,24.0,0.,24.0,0.,24.0,0.,24.0
1979-03-02 09:04:47.770 ,4,1,5.,24.0,1.,24.0,0.,24.0,0.,24.0
1979-03-02 09:05:11.770 ,5,1,1.,24.0,0.,24.0,0.,24.0,0.,24.0
1979-03-02 09:05:35.770 ,6,1,2.,24.0,1.,24.0,0.,24.0,0.,24.0
1979-03-02 09:05:59.770 ,7,1,0.,24.0,0.,24.0,0.,24.0,0.,24.0
1979-03-02 09:06:23.770 ,7,1,5.,24.0,0.,24.0,0.,24.0,0.,24.0
1979-03-02 09:06:47.770 ,6,1,9.,24.0,0.,24.0,1.,24.0,0.,24.0
1979-03-02 09:07:11.770 ,5,1,1.,24.0,0.,24.0,0.,24.0,0.,24.0
1979-03-02 09:07:35.770 ,4,1,4.,24.0,0.,24.0,0.,24.0,0.,24.0
1979-03-02 09:07:59.770 ,3,1,0.,24.0,0.,24.0,1.,24.0,0.,24.0
1979-03-02 09:08:23.770 ,2,1,1.,24.0,1.,24.0,0.,24.0,0.,24.0
1979-03-02 09:08:47.770 ,1,1,1.,24.0,0.,24.0,0.,24.0,0.,24.0
1979-03-02 09:09:11.770 ,0,1,6.,24.0,0.,24.0,0.,24.0,0.,24.0
1979-03-02 09:09:35.770 ,0,1,4.,24.0,2.,24.0,0.,24.0,0.,24.0
1979-03-02 09:09:59.770 ,1,1,3.,24.0,1.,24.0,0.,24.0,0.,24.0
1979-03-02 09:10:23.770 ,2,1,1.,24.0,0.,24.0,1.,24.0,0.,24.0
1979-03-02 09:10:47.770 ,3,1,3.,24.0,1.,24.0,0.,24.0,0.,24.0
1979-03-02 09:11:11.770 ,4,1,2.,24.0,0.,24.0,1.,24.0,0.,24.0
1979-03-02 09:11:35.770 ,5,1,4.,24.0,0.,24.0,3.,24.0,0.,24.0
1979-03-02 09:11:59.770 ,6,1,1.,24.0,0.,24.0,0.,24.0,0.,24.0
1979-03-02 09:12:23.770 ,7,1,7.,24.0,0.,24.0,1.,24.0,0.,24.0
1979-03-02 09:12:47.770 ,7,1,11.,24.0,0.,24.0,1.,24.0,0.,24.0
1979-03-02 09:13:11.770 ,6,1,9.,24.0,0.,24.0,0.,24.0,0.,24.0
1979-03-02 09:13:35.770 ,5,1,2.,24.0,1.,24.0,1.,24.0,0.,24.0
1979-03-02 09:13:59.770 ,4,1,4.,24.0,1.,24.0,1.,24.0,0.,24.0
1979-03-02 09:14:23.770 ,3,1,2.,24.0,0.,24.0,0.,24.0,0.,24.0
1979-03-02 09:14:47.770 ,2,1,3.,24.0,0.,24.0,0.,24.0,0.,24.0
1979-03-02 09:15:11.770 ,1,1,1.,24.0,0.,24.0,0.,24.0,0.,24.0
1979-03-02 09:15:35.770 ,0,1,0.,24.0,1.,24.0,0.,24.0,0.,24.0
1979-03-02 09:15:59.770 ,0,1,2.,24.0,1.,24.0,0.,24.0,0.,24.0
1979-03-02 09:16:23.770 ,1,1,1.,24.0,0.,24.0,1.,24.0,0.,24.0
1979-03-02 09:16:47.770 ,2,1,0.,24.0,1.,24.0,0.,24.0,0.,24.0
1979-03-02 09:17:11.770 ,3,1,0.,24.0,0.,24.0,0.,24.0,0.,24.0
1979-03-02 09:17:35.770 ,4,1,2.,24.0,0.,24.0,0.,24.0,0.,24.0
1979-03-02 09:17:59.770 ,5,1,1.,24.0,0.,24.0,0.,24.0,0.,24.0
1979-03-02 09:18:23.770 ,6,1,3.,24.0,0.,24.0,0.,24.0,0.,24.0
1979-03-02 09:18:47.770 ,7,1,3.,24.0,1.,24.0,0.,24.0,0.,24.0
1979-03-02 09:19:11.770 ,7,1,11.,24.0,0.,24.0,0.,24.0,0.,24.0
1979-03-02 09:19:35.770 ,6,1,9.,24.0,1.,24.0,0.,24.0,0.,24.0
1979-03-02 09:19:59.770 ,5,1,1.,24.0,0.,24.0,0.,24.0,0.,24.0
1979-03-02 09:20:23.770 ,4,1,1.,24.0,1.,24.0,0.,24.0,0.,24.0
1979-03-02 09:20:47.770 ,3,1,1.,24.0,1.,24.0,0.,24.0,0.,24.0
1979-03-02 09:21:11.770 ,2,1,2.,24.0,0.,24.0,0.,24.0,0.,24.0
1979-03-02 09:21:35.770 ,1,1,2.,24.0,0.,24.0,0.,24.0,0.,24.0
1979-03-02 09:21:59.770 ,0,1,1.,24.0,1.,24.0,0.,24.0,0.,24.0
1979-03-02 09:22:23.770 ,0,1,0.,24.0,0.,24.0,3.,24.0,0.,24.0
1979-03-02 09:22:47.770 ,1,1,1.,24.0,0.,24.0,0.,24.0,0.,24.0
1979-03-02 09:23:11.770 ,2,1,1.,24.0,0.,24.0,0.,24.0,0.,24.0
1979-03-02 09:23:35.770 ,3,1,0.,24.0,0.,24.0,0.,24.0,0.,24.0
1979-03-02 09:23:59.770 ,4,1,2.,24.0,3.,24.0,0.,24.0,0.,24.0
1979-03-02 09:24:23.770 ,5,1,2.,24.0,1.,24.0,0.,24.0,0.,24.0
1979-03-02 09:24:47.770 ,6,1,0.,24.0,0.,24.0,0.,24.0,0.,24.0
1979-03-02 09:25:11.770 ,7,1,1.,24.0,0.,24.0,0.,24.0,0.,24.0
1979-03-02 09:25:35.770 ,7,1,14.,24.0,0.,24.0,0.,24.0,0.,24.0
1979-03-02 09:25:59.770 ,6,1,8.,24.0,0.,24.0,0.,24.0,0.,24.0
1979-03-02 09:26:23.770 ,5,1,2.,24.0,1.,24.0,0.,24.0,0.,24.0
1979-03-02 09:26:47.770 ,4,1,0.,24.0,2.,24.0,0.,24.0,0.,24.0
1979-03-02 09:27:11.770 ,3,1,5.,24.0,1.,24.0,1.,24.0,0.,24.0
1979-03-02 09:27:35.770 ,2,1,1.,24.0,0.,24.0,0.,24.0,0.,24.0
1979-03-02 09:27:59.770 ,1,1,0.,24.0,0.,24.0,0.,24.0,0.,24.0
1979-03-02 09:28:23.770 ,0,1,2.,24.0,0.,24.0,0.,24.0,0.,24.0
1979-03-02 09:28:47.770 ,0,1,3.,24.0,0.,24.0,0.,24.0,0.,24.0
1979-03-02 09:29:11.770 ,1,1,0.,24.0,1.,24.0,1.,24.0,0.,24.0
1979-03-02 09:29:35.770 ,2,1,1.,24.0,1.,24.0,0.,24.0,0.,24.0
1979-03-02 09:29:59.770 ,3,1,2.,24.0,1.,24.0,1.,24.0,0.,24.0
1979-03-02 09:30:23.770 ,4,1,4.,24.0,0.,24.0,1.,24.0,0.,24.0
1979-03-02 09:30:47.770 ,5,1,0.,24.0,1.,24.0,0.,24.0,0.,24.0
1979-03-02 09:31:11.770 ,6,1,1.,24.0,1.,24.0,0.,24.0,0.,24.0
1979-03-02 09:31:35.770 ,7,1,2.,24.0,0.,24.0,0.,24.0,0.,24.0
1979-03-02 09:31:59.770 ,7,1,8.,24.0,0.,24.0,0.,24.0,0.,24.0
1979-03-02 09:32:23.770 ,6,1,6.,24.0,2.,24.0,0.,24.0,0.,24.0
1979-03-02 09:32:47.770 ,5,1,2.,24.0,0.,24.0,0.,24.0,0.,24.0
1979-03-02 09:33:11.770 ,4,1,2.,24.0,0.,24.0,0.,24.0,0.,24.0
1979-03-02 09:33:35.770 ,3,1,4.,24.0,1.,24.0,0.,24.0,0.,24.0
1979-03-02 09:33:59.770 ,2,1,4.,24.0,0.,24.0,0.,24.0,0.,24.0
1979-03-02 09:34:23.770 ,1,1,0.,24.0,0.,24.0,0.,24.0,0.,24.0
1979-03-02 09:34:47.770 ,0,1,3.,24.0,0.,24.0,0.,24.0,0.,24.0
1979-03-02 09:35:11.770 ,0,1,3.,24.0,1.,24.0,0.,24.0,0.,24.0
1979-03-02 09:35:35.770 ,1,1,2.,24.0,0.,24.0,0.,24.0,0.,24.0
1979-03-02 09:35:59.770 ,2,1,0.,24.0,0.,24.0,0.,24.0,0.,24.0
1979-03-02 09:36:23.770 ,3,1,2.,24.0,1.,24.0,0.,24.0,0.,24.0
1979-03-02 09:36:47.770 ,4,1,1.,24.0,0.,24.0,0.,24.0,0.,24.0
1979-03-02 09:37:11.770 ,5,1,3.,24.0,0.,24.0,0.,24.0,0.,24.0
1979-03-02 09:37:35.770 ,6,1,3.,24.0,0.,24.0,0.,24.0,0.,24.0
1979-03-02 09:37:59.770 ,7,1,1.,24.0,0.,24.0,0.,24.0,0.,24.0
1979-03-02 09:38:23.770 ,7,1,8.,24.0,0.,24.0,0.,24.0,0.,24.0
1979-03-02 09:38:47.770 ,6,1,5.,24.0,0.,24.0,0.,24.0,0.,24.0
1979-03-02 09:39:11.770 ,5,1,1.,24.0,0.,24.0,0.,24.0,0.,24.0
1979-03-02 09:39:35.770 ,4,1,1.,24.0,0.,24.0,0.,24.0,0.,24.0
1979-03-02 09:39:59.770 ,3,1,0.,24.0,0.,24.0,2.,24.0,0.,24.0
1979-03-02 09:40:23.770 ,2,1,0.,24.0,0.,24.0,0.,24.0,0.,24.0
1979-03-02 09:40:47.770 ,1,1,1.,24.0,0.,24.0,0.,24.0,0.,24.0
1979-03-02 09:41:11.770 ,0,1,1.,24.0,0.,24.0,0.,24.0,0.,24.0
1979-03-02 09:41:35.770 ,0,1,2.,24.0,1.,24.0,0.,24.0,0.,24.0
1979-03-02 09:41:59.770 ,1,1,2.,24.0,0.,24.0,1.,24.0,0.,24.0
1979-03-02 09:42:23.770 ,2,1,3.,24.0,0.,24.0,0.,24.0,0.,24.0
1979-03-02 09:42:47.770 ,3,1,2.,24.0,0.,24.0,0.,24.0,0.,24.0
1979-03-02 09:43:11.770 ,4,1,2.,24.0,0.,24.0,0.,24.0,0.,24.0
1979-03-02 09:43:35.770 ,5,1,0.,24.0,0.,24.0,0.,24.0,0.,24.0
1979-03-02 09:43:59.770 ,6,1,0.,24.0,0.,24.0,1.,24.0,0.,24.0
1979-03-02 09:44:23.770 ,7,1,3.,24.0,0.,24.0,0.,24.0,0.,24.0
1979-03-02 09:44:47.770 ,7,1,4.,24.0,0.,24.0,0.,24.0,0.,24.0
1979-03-02 09:45:11.770 ,6,1,6.,24.0,0.,24.0,0.,24.0,0.,24.0
1979-03-02 09:45:35.770 ,5,1,0.,24.0,0.,24.0,0.,24.0,0.,24.0
1979-03-02 09:45:59.770 ,4,1,1.,24.0,0.,24.0,0.,24.0,0.,24.0
1979-03-02 09:46:23.770 ,3,1,1.,24.0,0.,24.0,0.,24.0,0.,24.0
1979-03-02 09:46:47.770 ,2,1,2.,24.0,0.,24.0,0.,24.0,0.,24.0
1979-03-02 09:47:11.770 ,1,1,1.,24.0,0.,24.0,2.,24.0,0.,24.0
1979-03-02 09:47:35.770 ,0,1,0.,24.0,1.,24.0,2.,24.0,0.,24.0
1979-03-02 09:47:59.770 ,0,1,2.,24.0,0.,24.0,0.,24.0,0.,24.0
1979-03-02 09:48:23.770 ,1,1,2.,24.0,0.,24.0,0.,24.0,0.,24.0
1979-03-02 09:48:47.770 ,2,1,1.,24.0,0.,24.0,0.,24.0,0.,24.0
1979-03-02 09:49:11.770 ,3,1,0.,24.0,0.,24.0,0.,24.0,0.,24.0
1979-03-02 09:49:35.770 ,4,1,0.,24.0,0.,24.0,0.,24.0,0.,24.0
1979-03-02 09:49:59.770 ,5,1,1.,24.0,0.,24.0,0.,24.0,0.,24.0
1979-03-02 09:50:23.770 ,6,1,0.,24.0,0.,24.0,0.,24.0,0.,24.0
1979-03-02 09:50:47.770 ,7,1,1.,24.0,0.,24.0,0.,24.0,0.,24.0
1979-03-02 09:51:11.770 ,7,1,16.,24.0,0.,24.0,0.,24.0,0.,24.0
1979-03-02 09:51:35.770 ,6,1,5.,24.0,0.,24.0,0.,24.0,0.,24.0
1979-03-02 09:51:59.770 ,5,1,1.,24.0,0.,24.0,0.,24.0,0.,24.0
1979-03-02 09:52:23.770 ,4,1,0.,24.0,0.,24.0,0.,24.0,0.,24.0
1979-03-02 09:52:47.770 ,3,1,0.,24.0,0.,24.0,0.,24.0,0.,24.0
1979-03-02 09:53:11.770 ,2,1,0.,24.0,0.,24.0,1.,24.0,0.,24.0
1979-03-02 09:53:35.770 ,1,1,3.,24.0,0.,24.0,0.,24.0,0.,24.0
1979-03-02 09:53:59.770 ,0,1,2.,24.0,0.,24.0,0.,24.0,0.,24.0
1979-03-02 09:54:23.770 ,0,1,3.,24.0,1.,24.0,0.,24.0,0.,24.0
1979-03-02 09:54:47.770 ,1,1,1.,24.0,0.,24.0,1.,24.0,0.,24.0
1979-03-02 09:55:11.770 ,2,1,0.,24.0,0.,24.0,1.,24.0,0.,24.0
1979-03-02 09:55:35.770 ,3,1,1.,24.0,1.,24.0,1.,24.0,0.,24.0
1979-03-02 09:55:59.770 ,4,1,0.,24.0,0.,24.0,0.,24.0,0.,24.0
1979-03-02 09:56:23.770 ,5,1,0.,24.0,0.,24.0,0.,24.0,0.,24.0
1979-03-02 09:56:47.770 ,6,1,1.,24.0,0.,24.0,0.,24.0,0.,24.0
1979-03-02 09:57:11.770 ,7,1,3.,24.0,0.,24.0,0.,24.0,0.,24.0
1979-03-02 09:57:35.770 ,7,1,9.,24.0,0.,24.0,0.,24.0,0.,24.0
1979-03-02 09:57:59.770 ,6,1,8.,24.0,1.,24.0,0.,24.0,0.,24.0
1979-03-02 09:58:23.770 ,5,1,1.,24.0,1.,24.0,1.,24.0,0.,24.0
1979-03-02 09:58:47.770 ,4,1,1.,24.0,0.,24.0,2.,24.0,0.,24.0
1979-03-02 09:59:11.770 ,3,1,0.,24.0,0.,24.0,0.,24.0,0.,24.0
1979-03-02 09:59:35.770 ,2,1,1.,24.0,0.,24.0,0.,24.0,0.,24.0
1979-03-02 09:59:59.770 ,1,1,1.,24.0,0.,24.0,0.,24.0,0.,24.0
1979-03-02 10:00:23.770 ,0,1,1.,24.0,0.,24.0,0.,24.0,0.,24.0
1979-03-02 10:00:47.770 ,0,1,0.,24.0,0.,24.0,0.,24.0,0.,24.0
1979-03-02 10:01:11.770 ,1,1,0.,24.0,0.,24.0,2.,24.0,0.,24.0
1979-03-02 10:01:35.770 ,2,1,0.,24.0,0.,24.0,0.,24.0,0.,24.0
1979-03-02 10:01:59.770 ,3,1,1.,24.0,0.,24.0,0.,24.0,0.,24.0
1979-03-02 10:02:23.770 ,4,1,2.,24.0,0.,24.0,0.,24.0,0.,24.0
1979-03-02 10:02:47.770 ,5,1,1.,24.0,0.,24.0,0.,24.0,0.,24.0
1979-03-02 10:03:11.770 ,6,1,3.,24.0,0.,24.0,0.,24.0,0.,24.0
1979-03-02 10:03:35.770 ,7,1,3.,24.0,2.,24.0,0.,24.0,0.,24.0
1979-03-02 10:03:59.770 ,7,1,13.,24.0,0.,24.0,0.,24.0,0.,24.0
1979-03-02 10:04:23.770 ,6,1,5.,24.0,0.,24.0,0.,24.0,0.,24.0
1979-03-02 10:04:47.770 ,5,1,1.,24.0,0.,24.0,0.,24.0,0.,24.0
1979-03-02 10:05:11.770 ,4,1,1.,24.0,0.,24.0,0.,24.0,0.,24.0
1979-03-02 10:05:35.770 ,3,1,0.,24.0,0.,24.0,1.,24.0,0.,24.0
1979-03-02 10:05:59.770 ,2,1,1.,24.0,0.,24.0,0.,24.0,0.,24.0
1979-03-02 10:06:23.770 ,1,1,0.,24.0,0.,24.0,0.,24.0,0.,24.0
1979-03-02 10:06:47.770 ,0,1,1.,24.0,2.,24.0,1.,24.0,0.,24.0
1979-03-02 10:07:11.770 ,0,1,0.,24.0,0.,24.0,0.,24.0,0.,24.0
1979-03-02 10:07:35.770 ,1,1,2.,24.0,0.,24.0,0.,24.0,0.,24.0
1979-03-02 10:07:59.770 ,2,1,1.,24.0,0.,24.0,0.,24.0,0.,24.0
1979-03-02 10:08:23.770 ,3,1,1.,24.0,1.,24.0,2.,24.0,0.,24.0
1979-03-02 10:08:47.770 ,4,1,0.,24.0,1.,24.0,1.,24.0,0.,24.0
1979-03-02 10:09:11.770 ,5,1,3.,24.0,0.,24.0,0.,24.0,0.,24.0
1979-03-02 10:09:35.770 ,6,1,2.,24.0,0.,24.0,0.,24.0,0.,24.0
1979-03-02 10:09:59.770 ,7,1,8.,24.0,2.,24.0,1.,24.0,0.,24.0
1979-03-02 10:10:23.770 ,7,1,7.,24.0,0.,24.0,0.,24.0,0.,24.0
1979-03-02 10:10:47.770 ,6,1,2.,24.0,0.,24.0,0.,24.0,0.,24.0
1979-03-02 10:11:11.770 ,5,1,6.,24.0,0.,24.0,0.,24.0,0.,24.0
1979-03-02 10:11:35.770 ,4,1,6.,24.0,0.,24.0,0.,24.0,0.,24.0
1979-03-02 10:11:59.770 ,3,1,2.,24.0,0.,24.0,0.,24.0,0.,24.0
1979-03-02 10:12:23.770 ,2,1,0.,24.0,0.,24.0,1.,24.0,0.,24.0
1979-03-02 10:12:47.770 ,1,1,1.,24.0,0.,24.0,0.,24.0,0.,24.0
1979-03-02 10:13:11.770 ,0,1,2.,24.0,0.,24.0,0.,24.0,0.,24.0
1979-03-02 10:13:35.770 ,0,1,1.,24.0,0.,24.0,0.,24.0,0.,24.0
1979-03-02 10:13:59.770 ,1,1,0.,24.0,0.,24.0,1.,24.0,0.,24.0
1979-03-02 10:14:23.770 ,2,1,0.,24.0,0.,24.0,0.,24.0,0.,24.0
1979-03-02 10:14:47.770 ,3,1,1.,24.0,0.,24.0,0.,24.0,0.,24.0
1979-03-02 10:15:11.770 ,4,1,3.,24.0,0.,24.0,0.,24.0,0.,24.0
1979-03-02 10:15:35.770 ,5,1,1.,24.0,0.,24.0,0.,24.0,0.,24.0
1979-03-02 10:15:59.770 ,6,1,1.,24.0,1.,24.0,1.,24.0,0.,24.0
1979-03-02 10:16:23.770 ,7,1,3.,24.0,1.,24.0,1.,24.0,0.,24.0
1979-03-02 10:16:47.770 ,7,1,12.,24.0,0.,24.0,1.,24.0,0.,24.0
1979-03-02 10:17:11.770 ,6,1,9.,24.0,0.,24.0,0.,24.0,0.,24.0
1979-03-02 10:17:35.770 ,5,1,1.,24.0,0.,24.0,0.,24.0,0.,24.0
1979-03-02 10:17:59.770 ,4,1,3.,24.0,0.,24.0,0.,24.0,0.,24.0
1979-03-02 10:18:23.770 ,3,1,1.,24.0,1.,24.0,0.,24.0,0.,24.0
1979-03-02 10:18:47.770 ,2,1,0.,24.0,1.,24.0,0.,24.0,0.,24.0
1979-03-02 10:19:11.770 ,1,1,1.,24.0,0.,24.0,1.,24.0,0.,24.0
1979-03-02 10:19:35.770 ,0,1,1.,24.0,0.,24.0,1.,24.0,0.,24.0
1979-03-02 10:19:59.770 ,0,1,0.,24.0,0.,24.0,0.,24.0,0.,24.0
1979-03-02 10:20:23.770 ,1,1,0.,24.0,0.,24.0,0.,24.0,0.,24.0
1979-03-02 10:20:47.770 ,2,1,1.,24.0,0.,24.0,1.,24.0,0.,24.0
1979-03-02 10:21:11.770 ,3,1,1.,24.0,0.,24.0,0.,24.0,0.,24.0
1979-03-02 10:21:35.770 ,4,1,1.,24.0,0.,24.0,0.,24.0,0.,24.0
1979-03-02 10:21:59.770 ,5,1,1.,24.0,1.,24.0,0.,24.0,0.,24.0
1979-03-02 10:22:23.770 ,6,1,0.,24.0,0.,24.0,2.,24.0,0.,24.0
1979-03-02 10:22:47.770 ,7,1,5.,24.0,0.,24.0,0.,24.0,0.,24.0
1979-03-02 10:23:11.770 ,7,1,14.,24.0,0.,24.0,0.,24.0,0.,24.0
1979-03-02 10:23:35.770 ,6,1,8.,24.0,0.,24.0,3.,24.0,0.,24.0
1979-03-02 10:23:59.770 ,5,1,3.,24.0,0.,24.0,0.,24.0,0.,24.0
1979-03-02 10:24:23.770 ,4,1,1.,24.0,0.,24.0,1.,24.0,0.,24.0
1979-03-02 10:24:47.770 ,3,1,2.,24.0,0.,24.0,0.,24.0,0.,24.0
1979-03-02 10:25:11.770 ,2,1,0.,24.0,1.,24.0,0.,24.0,0.,24.0
1979-03-02 10:25:35.770 ,1,1,0.,24.0,0.,24.0,0.,24.0,0.,24.0
1979-03-02 10:25:59.770 ,0,1,0.,24.0,1.,24.0,1.,24.0,0.,24.0
1979-03-02 10:26:23.770 ,0,1,1.,24.0,0.,24.0,0.,24.0,0.,24.0
1979-03-02 10:26:47.770 ,1,1,0.,24.0,0.,24.0,0.,24.0,0.,24.0
1979-03-02 10:27:11.770 ,2,1,0.,24.0,0.,24.0,0.,24.0,0.,24.0
1979-03-02 10:27:35.770 ,3,1,0.,24.0,0.,24.0,0.,24.0,0.,24.0
1979-03-02 10:27:59.770 ,4,1,0.,24.0,0.,24.0,0.,24.0,0.,24.0
1979-03-02 10:28:23.770 ,5,1,3.,24.0,0.,24.0,0.,24.0,0.,24.0
1979-03-02 10:28:47.770 ,6,1,1.,24.0,0.,24.0,0.,24.0,0.,24.0
1979-03-02 10:29:11.770 ,7,1,2.,24.0,0.,24.0,1.,24.0,0.,24.0
1979-03-02 10:29:35.770 ,7,1,12.,24.0,0.,24.0,1.,24.0,0.,24.0
1979-03-02 10:29:59.770 ,6,1,7.,24.0,0.,24.0,0.,24.0,0.,24.0
1979-03-02 10:30:23.770 ,5,1,0.,24.0,0.,24.0,0.,24.0,0.,24.0
1979-03-02 10:30:47.770 ,4,1,3.,24.0,0.,24.0,0.,24.0,0.,24.0
1979-03-02 10:31:11.770 ,3,1,1.,24.0,0.,24.0,0.,24.0,0.,24.0
1979-03-02 10:31:35.770 ,2,1,1.,24.0,1.,24.0,0.,24.0,0.,24.0
1979-03-02 10:31:59.770 ,1,1,1.,24.0,0.,24.0,0.,24.0,0.,24.0
1979-03-02 10:32:23.770 ,0,1,0.,24.0,0.,24.0,0.,24.0,0.,24.0
1979-03-02 10:32:47.770 ,0,1,0.,24.0,0.,24.0,0.,24.0,0.,24.0
1979-03-02 10:33:11.770 ,1,1,0.,24.0,0.,24.0,1.,24.0,0.,24.0
1979-03-02 10:33:35.770 ,2,1,1.,24.0,1.,24.0,0.,24.0,0.,24.0
1979-03-02 10:33:59.770 ,3,1,0.,24.0,0.,24.0,0.,24.0,0.,24.0
1979-03-02 10:34:23.770 ,4,1,0.,24.0,0.,24.0,1.,24.0,0.,24.0
1979-03-02 10:34:47.770 ,5,1,1.,24.0,0.,24.0,0.,24.0,0.,24.0
1979-03-02 10:35:11.770 ,6,1,2.,24.0,0.,24.0,0.,24.0,0.,24.0
1979-03-02 10:35:35.770 ,7,1,3.,24.0,1.,24.0,0.,24.0,0.,24.0
1979-03-02 10:35:59.770 ,7,1,10.,24.0,0.,24.0,0.,24.0,0.,24.0
1979-03-02 10:36:23.770 ,6,1,6.,24.0,0.,24.0,0.,24.0,0.,24.0
1979-03-02 10:36:47.770 ,5,1,0.,24.0,0.,24.0,1.,24.0,0.,24.0
1979-03-02 10:37:11.770 ,4,1,1.,24.0,0.,24.0,1.,24.0,0.,24.0
1979-03-02 10:37:35.770 ,3,1,3.,24.0,0.,24.0,0.,24.0,0.,24.0
1979-03-02 10:37:59.770 ,2,1,0.,24.0,0.,24.0,0.,24.0,0.,24.0
1979-03-02 10:38:23.770 ,1,1,0.,24.0,0.,24.0,0.,24.0,0.,24.0
1979-03-02 10:38:47.770 ,0,1,1.,24.0,0.,24.0,0.,24.0,0.,24.0
1979-03-02 10:39:11.770 ,0,1,0.,24.0,0.,24.0,0.,24.0,0.,24.0
1979-03-02 10:39:35.770 ,1,1,0.,24.0,0.,24.0,0.,24.0,0.,24.0
1979-03-02 10:39:59.770 ,2,1,0.,24.0,0.,24.0,0.,24.0,0.,24.0
1979-03-02 10:40:23.770 ,3,1,1.,24.0,0.,24.0,0.,24.0,0.,24.0
1979-03-02 10:40:47.770 ,4,1,0.,24.0,0.,24.0,1.,24.0,0.,24.0
1979-03-02 10:41:11.770 ,5,1,1.,24.0,0.,24.0,0.,24.0,0.,24.0
1979-03-02 10:41:35.770 ,6,1,0.,24.0,0.,24.0,0.,24.0,0.,24.0
1979-03-02 10:41:59.770 ,7,1,5.,24.0,0.,24.0,0.,24.0,0.,24.0
1979-03-02 10:42:23.770 ,7,1,11.,24.0,0.,24.0,2.,24.0,0.,24.0
1979-03-02 10:42:47.770 ,6,1,9.,24.0,0.,24.0,2.,24.0,0.,24.0
1979-03-02 10:43:11.770 ,5,1,3.,24.0,0.,24.0,0.,24.0,0.,24.0
1979-03-02 10:43:35.770 ,4,1,0.,24.0,0.,24.0,1.,24.0,0.,24.0
1979-03-02 10:43:59.770 ,3,1,0.,24.0,0.,24.0,1.,24.0,0.,24.0
1979-03-02 10:44:23.770 ,2,1,0.,24.0,0.,24.0,0.,24.0,0.,24.0
1979-03-02 10:44:47.770 ,1,1,1.,24.0,0.,24.0,0.,24.0,0.,24.0
1979-03-02 10:45:11.770 ,0,1,0.,24.0,0.,24.0,1.,24.0,0.,24.0
1979-03-02 10:45:35.770 ,0,1,0.,24.0,0.,24.0,1.,24.0,0.,24.0
1979-03-02 10:45:59.770 ,1,1,1.,24.0,0.,24.0,1.,24.0,0.,24.0
1979-03-02 10:46:23.770 ,2,1,1.,24.0,0.,24.0,0.,24.0,0.,24.0
1979-03-02 10:46:47.770 ,3,1,0.,24.0,0.,24.0,0.,24.0,0.,24.0
1979-03-02 10:47:11.770 ,4,1,1.,24.0,0.,24.0,1.,24.0,0.,24.0
1979-03-02 10:47:35.770 ,5,1,0.,24.0,0.,24.0,1.,24.0,0.,24.0
1979-03-02 10:47:59.770 ,6,1,2.,24.0,0.,24.0,0.,24.0,0.,24.0
1979-03-02 10:48:23.770 ,7,1,2.,24.0,0.,24.0,0.,24.0,0.,24.0
1979-03-02 10:48:47.770 ,7,1,9.,24.0,0.,24.0,0.,24.0,0.,24.0
1979-03-02 10:49:11.770 ,6,1,8.,24.0,0.,24.0,0.,24.0,0.,24.0
1979-03-02 10:49:35.770 ,5,1,1.,24.0,0.,24.0,3.,24.0,0.,24.0
1979-03-02 10:49:59.770 ,4,1,0.,24.0,0.,24.0,0.,24.0,0.,24.0
1979-03-02 10:50:23.770 ,3,1,1.,24.0,0.,24.0,0.,24.0,0.,24.0
1979-03-02 10:50:47.770 ,2,1,0.,24.0,0.,24.0,0.,24.0,0.,24.0
1979-03-02 10:51:11.770 ,1,1,0.,24.0,0.,24.0,0.,24.0,0.,24.0
1979-03-02 10:51:35.770 ,0,1,0.,24.0,0.,24.0,0.,24.0,0.,24.0
1979-03-02 10:51:59.770 ,0,1,2.,24.0,0.,24.0,1.,24.0,0.,24.0
1979-03-02 10:52:23.770 ,1,1,1.,24.0,1.,24.0,0.,24.0,0.,24.0
1979-03-02 10:52:47.770 ,2,1,0.,24.0,0.,24.0,1.,24.0,0.,24.0
1979-03-02 10:53:11.770 ,3,1,0.,24.0,0.,24.0,0.,24.0,0.,24.0
1979-03-02 10:53:35.770 ,0,0,0.,24.0,0.,24.0,0.,24.0,0.,24.0
1979-03-02 10:53:59.770 ,5,1,2.,24.0,0.,24.0,0.,24.0,0.,24.0
1979-03-02 10:54:23.770 ,6,1,0.,24.0,0.,24.0,0.,24.0,0.,24.0
1979-03-02 10:54:47.770 ,7,1,0.,24.0,0.,24.0,1.,24.0,0.,24.0
1979-03-02 10:55:11.770 ,7,1,12.,24.0,0.,24.0,0.,24.0,0.,24.0
1979-03-02 10:55:35.770 ,6,1,7.,24.0,1.,24.0,0.,24.0,0.,24.0
1979-03-02 10:55:59.770 ,5,1,1.,24.0,0.,24.0,1.,24.0,0.,24.0
1979-03-02 10:56:23.770 ,4,1,0.,24.0,0.,24.0,0.,24.0,0.,24.0
1979-03-02 10:56:47.770 ,3,1,0.,24.0,0.,24.0,0.,24.0,0.,24.0
1979-03-02 10:57:11.770 ,2,1,1.,24.0,0.,24.0,0.,24.0,0.,24.0
1979-03-02 10:57:35.770 ,1,1,0.,24.0,0.,24.0,0.,24.0,0.,24.0
1979-03-02 10:57:59.770 ,0,1,0.,24.0,0.,24.0,1.,24.0,0.,24.0
1979-03-02 10:58:23.770 ,0,1,1.,24.0,1.,24.0,0.,24.0,0.,24.0
1979-03-02 10:58:47.770 ,1,1,0.,24.0,0.,24.0,0.,24.0,0.,24.0
1979-03-02 10:59:11.770 ,2,1,1.,24.0,0.,24.0,0.,24.0,0.,24.0
1979-03-02 10:59:35.770 ,3,1,1.,24.0,0.,24.0,1.,24.0,0.,24.0
1979-03-02 10:59:59.770 ,4,1,0.,24.0,0.,24.0,0.,24.0,0.,24.0
1979-03-02 11:00:23.770 ,5,1,2.,24.0,0.,24.0,1.,24.0,0.,24.0
1979-03-02 11:00:47.770 ,6,1,0.,24.0,0.,24.0,0.,24.0,0.,24.0
1979-03-02 11:01:11.770 ,7,1,3.,24.0,0.,24.0,0.,24.0,0.,24.0
1979-03-02 11:01:35.770 ,7,1,5.,24.0,0.,24.0,0.,24.0,0.,24.0
1979-03-02 11:01:59.770 ,6,1,5.,24.0,0.,24.0,0.,24.0,0.,24.0
1979-03-02 11:02:23.770 ,5,1,0.,24.0,0.,24.0,1.,24.0,0.,24.0
1979-03-02 11:02:47.770 ,4,1,2.,24.0,0.,24.0,0.,24.0,0.,24.0
1979-03-02 11:03:11.770 ,3,1,0.,24.0,1.,24.0,1.,24.0,0.,24.0
1979-03-02 11:03:35.770 ,2,1,0.,24.0,0.,24.0,1.,24.0,0.,24.0
1979-03-02 11:03:59.770 ,1,1,0.,24.0,0.,24.0,0.,24.0,0.,24.0
1979-03-02 11:04:23.770 ,0,1,1.,24.0,0.,24.0,1.,24.0,0.,24.0
1979-03-02 11:04:47.770 ,0,1,1.,24.0,0.,24.0,0.,24.0,0.,24.0
1979-03-02 11:05:11.770 ,1,1,1.,24.0,0.,24.0,0.,24.0,0.,24.0
1979-03-02 11:05:35.770 ,2,1,0.,24.0,0.,24.0,1.,24.0,0.,24.0
1979-03-02 11:05:59.770 ,3,1,0.,24.0,0.,24.0,0.,24.0,0.,24.0
1979-03-02 11:06:23.770 ,4,1,0.,24.0,1.,24.0,0.,24.0,0.,24.0
1979-03-02 11:06:47.770 ,5,1,2.,24.0,0.,24.0,1.,24.0,0.,24.0
1979-03-02 11:07:11.770 ,6,1,1.,24.0,0.,24.0,0.,24.0,0.,24.0
1979-03-02 11:07:35.770 ,7,1,2.,24.0,0.,24.0,0.,24.0,0.,24.0
1979-03-02 11:07:59.770 ,0,0,,0,,0,,0,,0
1979-03-02 11:08:23.770 ,0,0,,0,,0,,0,,0
1979-03-02 11:08:23.770 ,0,0,,0,,0,,0,,0
1979-03-02 11:09:08.770 ,0,0,,0,,0,,0,,0
1979-03-02 11:09:11.770 ,0,0,,0,,0,,0,,0
1979-03-02 11:09:37.570 ,0,0,,0,,0,,0,,0
1979-03-02 11:09:59.770 ,0,0,,0,,0,,0,,0
1979-03-02 11:10:26.170 ,0,0,,0,,0,,0,,0
1979-03-02 11:10:47.770 ,0,0,,0,,0,,0,,0
1979-03-02 11:11:15.370 ,0,0,0.,24.0,0.,24.0,0.,24.0,0.,24.0
1979-03-02 11:11:35.770 ,1,1,2.,24.0,1.,24.0,0.,24.0,0.,24.0
1979-03-02 11:11:59.770 ,2,1,0.,24.0,1.,24.0,0.,24.0,0.,24.0
1979-03-02 11:12:23.770 ,3,1,1.,24.0,0.,24.0,0.,24.0,0.,24.0
1979-03-02 11:12:47.770 ,4,1,0.,24.0,1.,24.0,0.,24.0,0.,24.0
1979-03-02 11:13:11.770 ,5,1,2.,24.0,0.,24.0,1.,24.0,0.,24.0
1979-03-02 11:13:35.770 ,6,1,0.,24.0,0.,24.0,0.,24.0,0.,24.0
1979-03-02 11:13:59.770 ,7,1,3.,24.0,0.,24.0,2.,24.0,0.,24.0
1979-03-02 11:14:23.770 ,7,1,14.,24.0,0.,24.0,0.,24.0,0.,24.0
1979-03-02 11:14:47.770 ,6,1,6.,24.0,0.,24.0,0.,24.0,0.,24.0
1979-03-02 11:15:11.770 ,5,1,,0,,0,,0,,0
1979-03-02 11:15:35.770 ,4,1,0.,24.0,0.,24.0,0.,24.0,0.,24.0
1979-03-02 11:15:59.770 ,3,1,0.,24.0,0.,24.0,0.,24.0,0.,24.0
1979-03-02 11:16:23.770 ,2,1,1.,24.0,0.,24.0,0.,24.0,0.,24.0
1979-03-02 11:16:47.770 ,1,1,0.,24.0,0.,24.0,0.,24.0,0.,24.0
1979-03-02 11:17:11.770 ,0,1,0.,24.0,0.,24.0,1.,24.0,0.,24.0
1979-03-02 11:17:35.770 ,0,1,2.,24.0,0.,24.0,0.,24.0,0.,24.0
1979-03-02 11:17:59.770 ,1,1,4.,24.0,0.,24.0,0.,24.0,0.,24.0
1979-03-02 11:18:23.770 ,2,1,0.,24.0,1.,24.0,0.,24.0,0.,24.0
1979-03-02 11:18:47.770 ,3,1,0.,24.0,0.,24.0,0.,24.0,0.,24.0
1979-03-02 11:19:11.770 ,4,1,0.,24.0,1.,24.0,0.,24.0,0.,24.0
1979-03-02 11:19:35.770 ,5,1,1.,24.0,0.,24.0,0.,24.0,0.,24.0
1979-03-02 11:19:59.770 ,6,1,0.,24.0,2.,24.0,0.,24.0,0.,24.0
1979-03-02 11:20:23.770 ,7,1,2.,24.0,0.,24.0,0.,24.0,0.,24.0
1979-03-02 11:20:47.770 ,7,1,9.,24.0,0.,24.0,0.,24.0,0.,24.0
1979-03-02 11:21:11.770 ,6,1,5.,24.0,0.,24.0,0.,24.0,0.,24.0
1979-03-02 11:21:35.770 ,5,1,2.,24.0,0.,24.0,1.,24.0,0.,24.0
1979-03-02 11:21:59.770 ,4,1,4.,24.0,0.,24.0,0.,24.0,0.,24.0
1979-03-02 11:22:23.770 ,0,0,0.,24.0,1.,24.0,0.,24.0,0.,24.0
1979-03-02 11:22:47.770 ,0,0,1.,24.0,0.,24.0,0.,24.0,0.,24.0
1979-03-02 11:23:11.770 ,1,1,1.,24.0,0.,24.0,0.,24.0,0.,24.0
1979-03-02 11:23:35.770 ,0,1,0.,24.0,0.,24.0,1.,24.0,0.,24.0
1979-03-02 11:23:59.770 ,0,1,1.,24.0,0.,24.0,0.,24.0,0.,24.0
1979-03-02 11:24:23.770 ,1,1,0.,24.0,0.,24.0,0.,24.0,0.,24.0
1979-03-02 11:24:47.770 ,2,1,0.,24.0,0.,24.0,0.,24.0,0.,24.0
1979-03-02 11:25:11.770 ,3,1,0.,24.0,0.,24.0,0.,24.0,0.,24.0
1979-03-02 11:25:35.770 ,4,1,0.,24.0,0.,24.0,0.,24.0,0.,24.0
1979-03-02 11:25:59.770 ,5,1,0.,24.0,0.,24.0,1.,24.0,0.,24.0
1979-03-02 11:26:23.770 ,0,0,0.,24.0,0.,24.0,0.,24.0,0.,24.0
1979-03-02 11:26:47.770 ,0,0,7.,24.0,0.,24.0,0.,24.0,0.,24.0
1979-03-02 11:27:11.770 ,7,1,10.,24.0,0.,24.0,1.,24.0,0.,24.0
1979-03-02 11:27:35.770 ,6,1,6.,24.0,0.,24.0,0.,24.0,0.,24.0
1979-03-02 11:27:59.770 ,5,1,0.,24.0,0.,24.0,0.,24.0,0.,24.0
1979-03-02 11:28:23.770 ,4,1,1.,24.0,0.,24.0,0.,24.0,0.,24.0
1979-03-02 11:28:47.770 ,3,1,0.,24.0,0.,24.0,1.,24.0,0.,24.0
1979-03-02 11:29:11.770 ,2,1,0.,24.0,1.,24.0,0.,24.0,0.,24.0
1979-03-02 11:29:35.770 ,1,1,0.,24.0,0.,24.0,0.,24.0,0.,24.0
1979-03-02 11:29:59.770 ,0,1,0.,24.0,1.,24.0,0.,24.0,0.,24.0
1979-03-02 11:30:23.770 ,0,1,2.,24.0,0.,24.0,1.,24.0,0.,24.0
1979-03-02 11:30:47.770 ,1,1,0.,24.0,0.,24.0,0.,24.0,0.,24.0
1979-03-02 11:31:11.770 ,2,1,0.,24.0,0.,24.0,0.,24.0,0.,24.0
1979-03-02 11:31:35.770 ,3,1,0.,24.0,0.,24.0,0.,24.0,0.,24.0
1979-03-02 11:31:59.770 ,4,1,0.,24.0,1.,24.0,1.,24.0,0.,24.0
1979-03-02 11:32:23.770 ,5,1,2.,24.0,0.,24.0,0.,24.0,0.,24.0
1979-03-02 11:32:47.770 ,6,1,1.,24.0,0.,24.0,0.,24.0,0.,24.0
1979-03-02 11:33:11.770 ,7,1,3.,24.0,1.,24.0,0.,24.0,0.,24.0
1979-03-02 11:33:35.770 ,7,1,11.,24.0,0.,24.0,0.,24.0,0.,24.0
1979-03-02 11:33:59.770 ,6,1,7.,24.0,0.,24.0,0.,24.0,0.,24.0
1979-03-02 11:34:23.770 ,5,1,0.,24.0,0.,24.0,0.,24.0,0.,24.0
1979-03-02 11:34:47.770 ,4,1,0.,24.0,0.,24.0,0.,24.0,0.,24.0